User: anonymous   Login
Location: �terpigny
(49.8910°N, 2.9249°E)
Time: 18:32:03
(UTC+00:00)
Language:

Cosmos 1934 Rocket - Orbit

View from above orbital plane
View from above orbital plane
View from above satellite
View from above satellite

Ground track
Ground track

The orbit data is extracted from the following two-line orbital elements,

1 18986U 88023B   22021.91788488  .00000123  00000-0  10580-3 0  9996
2 18986  82.9523 233.8801 0041587 180.5504 179.5616 13.78657958702076
Epoch (UTC): 21 January 2022 22:01:45
Eccentricity: 0.0041587
inclination: 82.9523°
perigee height: 938 km
apogee height: 999 km
right ascension of ascending node: 233.8801°
argument of perigee: 180.5504°
revolutions per day: 13.78657958
mean anomaly at epoch: 179.5616°
orbit number at epoch: 70207

The dashed part of the orbit path shows where the satellite is in the earth's shadow,  

DLR